Weather History for Alexandria, MN

Change the Weather History Date:

Wednesday, March 6, 2013

  Actual Average Record
Temperature  
Mean Temperature 18 °F -  
Max Temperature 23 °F 32 °F 67 °F (1987)
Min Temperature 10 °F 9 °F -19 °F (1955)
Degree Days  
Heating Degree Days 48    
Moisture  
Dew Point 12 °F    
Average Humidity 81    
Maximum Humidity 93    
Minimum Humidity 68    
Precipitation  
Precipitation 0.00 in - - ()
Sea Level Pressure  
Sea Level Pressure 30.41 in    
Wind  
Wind Speed 4 mph (WNW)    
Max Wind Speed 9 mph    
Max Gust Speed -    
Visibility 10 miles    
Events      
Averages and records for this station are not official NWS values.
T = Trace of Precipitation, MM = Missing Value Source: NWS Daily Summary

Daily Weather History Graph

Daily Weather History Graph

Search for Another Location

Airport:

Trip Planner

Search our weather history database for the weather conditions in past years. The results will help you decide how hot, cold, wet, or windy it might be!

Date:

Astronomy

Mar. 06, 2013 Rise Set
Actual Time 6:50 AM CST 6:15 PM CST
Civil Twilight 6:20 AM CST 6:45 PM CST
Nautical Twilight 5:46 AM CST 7:19 PM CST
Astronomical Twilight 5:11 AM CST 7:54 PM CST
Moon 3:14 AM CST (3/6) 12:45 PM CST (3/6)
Length of Visible Light 12h 24m
Length of Day
11h 24m
Waning Crescent, 29% of the Moon is Illuminated
Mar 6
Waning Crescent
Mar 11
New
Mar 19
First Quarter
Mar 27
Full
Apr 2
Last Quarter

Hourly Weather History & Observations

Time (CST) Temp. Windchill Dew Point Humidity Pressure Visibility Wind Dir Wind Speed Gust Speed Precip Events Conditions
12:53 AM 15.1 °F 7.7 °F 12.0 °F 88% 30.41 in 10.0 mi NW 4.6 mph - N/A   Mostly Cloudy
1:16 AM 14.0 °F 8.2 °F 12.2 °F 93% 30.33 in 10.0 mi WNW 3.5 mph - N/A   Scattered Clouds
1:26 AM 12.2 °F - 10.4 °F 92% 30.33 in 10.0 mi Calm Calm - N/A   Mostly Cloudy
1:53 AM 12.0 °F 4.1 °F 10.0 °F 92% 30.42 in 10.0 mi West 4.6 mph - N/A   Overcast
2:53 AM 14.0 °F 6.5 °F 10.9 °F 88% 30.42 in 10.0 mi West 4.6 mph - N/A   Overcast
3:53 AM 15.1 °F 9.4 °F 12.0 °F 88% 30.42 in 10.0 mi West 3.5 mph - N/A   Overcast
4:15 AM 17.6 °F 8.2 °F 12.2 °F 79% 30.34 in 10.0 mi WNW 6.9 mph - N/A   Overcast
4:53 AM 18.0 °F 8.7 °F 14.0 °F 84% 30.43 in 10.0 mi NW 6.9 mph - N/A   Overcast
5:53 AM 18.0 °F 9.8 °F 14.0 °F 84% 30.45 in 10.0 mi WNW 5.8 mph - N/A   Overcast
6:53 AM 18.0 °F 6.9 °F 14.0 °F 84% 30.46 in 10.0 mi NW 9.2 mph - N/A   Overcast
7:53 AM 18.0 °F 7.7 °F 14.0 °F 84% 30.47 in 8.0 mi NW 8.1 mph - N/A   Overcast
8:53 AM 19.0 °F 10.0 °F 12.9 °F 77% 30.48 in 10.0 mi North 6.9 mph - N/A   Overcast
9:53 AM 19.0 °F 12.3 °F 12.9 °F 77% 30.48 in 8.0 mi NNE 4.6 mph - N/A   Overcast
10:53 AM 19.9 °F 13.4 °F 14.0 °F 78% 30.46 in 10.0 mi North 4.6 mph - N/A   Overcast
11:39 AM 21.2 °F - 14.0 °F 74% 30.37 in 10.0 mi Calm Calm - N/A   Overcast
11:53 AM 21.9 °F 15.7 °F 14.0 °F 72% 30.45 in 10.0 mi North 4.6 mph - N/A   Overcast
12:53 PM 23.0 °F - 14.0 °F 68% 30.44 in 10.0 mi Calm Calm - N/A   Overcast
1:53 PM 21.9 °F - 15.1 °F 75% 30.42 in 10.0 mi Calm Calm - N/A   Overcast
2:53 PM 21.9 °F 17.2 °F 15.1 °F 75% 30.41 in 10.0 mi SW 3.5 mph - N/A   Overcast
3:53 PM 21.9 °F 14.5 °F 14.0 °F 72% 30.40 in 10.0 mi South 5.8 mph - N/A   Overcast
4:53 PM 21.9 °F - 14.0 °F 72% 30.39 in 10.0 mi Calm Calm - N/A   Overcast
5:53 PM 19.0 °F 10.0 °F 12.0 °F 74% 30.39 in 10.0 mi SSE 6.9 mph - N/A   Mostly Cloudy
6:11 PM 17.6 °F 10.7 °F 12.2 °F 79% 30.31 in 10.0 mi South 4.6 mph - N/A   Scattered Clouds
6:53 PM 17.1 °F 10.0 °F 12.0 °F 81% 30.39 in 10.0 mi SSE 4.6 mph - N/A   Clear
7:53 PM 15.1 °F 9.4 °F 10.9 °F 84% 30.38 in 10.0 mi SE 3.5 mph - N/A   Clear
8:53 PM 14.0 °F 8.2 °F 10.0 °F 84% 30.39 in 10.0 mi SE 3.5 mph - N/A   Clear
9:53 PM 12.0 °F - 9.0 °F 88% 30.40 in 10.0 mi Calm Calm - N/A   Clear
10:53 PM 12.0 °F 5.9 °F 8.1 °F 84% 30.40 in 8.0 mi SE 3.5 mph - N/A   Clear
11:53 PM 10.9 °F 1.4 °F 8.1 °F 88% 30.38 in 8.0 mi SE 5.8 mph - N/A   Clear